WJA2233 TAPA-CYYZ

Flight info

Callsign WJA2233
Flight time 4h 29m
Altitude 34000
Route ANU ELOPO Y318 LARPP THANK L456 DARUX L459 SAVIK Y486 MOUGH Y484 JFK GAYEL Q818 WOZEE LINNG3
Aircraft B38M/M-SDE1FGHILORVWXY/HB1

Departure

Time 2026-05-04 11:13
Airport V. C. Bird International Airport (TAPA)

Arrival

Time 2026-05-04 15:42
Airport Toronto Pearson International Airport (CYYZ)
Time Latitude Longitude Altitude Speed Heading
2026-05-04 10:35 17.14100 -61.79036 58 ft 0 kts 328°
2026-05-04 11:02 17.14091 -61.79030 61 ft 4 kts 324°
2026-05-04 11:05 17.14057 -61.78942 57 ft 0 kts 240°
2026-05-04 11:06 17.14057 -61.78943 57 ft 0 kts 240°
2026-05-04 11:06 17.14053 -61.78951 57 ft 2 kts 240°
2026-05-04 11:06 17.14041 -61.78972 58 ft 5 kts 240°
2026-05-04 11:08 17.13703 -61.79215 63 ft 10 kts 239°
2026-05-04 11:10 17.13368 -61.79785 67 ft 18 kts 238°
2026-05-04 11:12 17.13140 -61.80172 66 ft 0 kts 57°
2026-05-04 11:12 17.13152 -61.80152 68 ft 20 kts 57°
2026-05-04 11:12 17.13370 -61.79779 68 ft 98 kts 58°
2026-05-04 11:12 17.13854 -61.78961 64 ft 165 kts 58°
2026-05-04 11:13 17.14499 -61.77853 582 ft 180 kts 61°
2026-05-04 11:13 17.15314 -61.76826 1346 ft 201 kts 33°
2026-05-04 11:13 17.16718 -61.76468 2067 ft 219 kts 359°
2026-05-04 11:13 17.18179 -61.76987 2885 ft 228 kts 331°
2026-05-04 11:14 17.19384 -61.78068 3722 ft 232 kts 315°
2026-05-04 11:14 17.20444 -61.79411 4301 ft 248 kts 309°
2026-05-04 11:14 17.21422 -61.80928 4887 ft 264 kts 302°
2026-05-04 11:16 17.28786 -61.93597 10187 ft 301 kts 302°
2026-05-04 11:16 17.29892 -61.95476 10642 ft 317 kts 302°
2026-05-04 11:16 17.31084 -61.97502 10891 ft 337 kts 302°
2026-05-04 11:17 17.32346 -61.99648 11118 ft 356 kts 302°
2026-05-04 11:17 17.33669 -62.01901 11453 ft 369 kts 302°
2026-05-04 11:19 17.43315 -62.18334 15400 ft 387 kts 301°
2026-05-04 11:19 17.44719 -62.20730 15927 ft 388 kts 301°
2026-05-04 11:19 17.46131 -62.23139 16434 ft 389 kts 301°
2026-05-04 11:19 17.47549 -62.25562 16899 ft 391 kts 301°
2026-05-04 11:20 17.48975 -62.27997 17358 ft 393 kts 301°
2026-05-04 11:20 17.50387 -62.30410 17838 ft 394 kts 301°
2026-05-04 11:20 17.51822 -62.32863 18290 ft 395 kts 301°
2026-05-04 11:20 17.53260 -62.35319 18708 ft 397 kts 301°
2026-05-04 11:22 17.63577 -62.52989 20986 ft 415 kts 302°
2026-05-04 11:22 17.65033 -62.55617 21245 ft 420 kts 295°
2026-05-04 11:23 17.66091 -62.58477 21596 ft 421 kts 292°
2026-05-04 11:23 17.67141 -62.61352 21870 ft 425 kts 292°
2026-05-04 11:24 17.73708 -62.79508 23781 ft 439 kts 293°
2026-05-04 11:25 17.74790 -62.82515 24023 ft 442 kts 292°
2026-05-04 11:25 17.75878 -62.85532 24314 ft 443 kts 292°
2026-05-04 11:25 17.76968 -62.88560 24595 ft 444 kts 292°
2026-05-04 11:26 17.79149 -62.94621 25212 ft 445 kts 292°
2026-05-04 11:27 17.86844 -63.16052 27167 ft 452 kts 291°
2026-05-04 11:28 17.87938 -63.19108 27407 ft 455 kts 291°
2026-05-04 11:28 17.89051 -63.22214 27734 ft 453 kts 291°
2026-05-04 11:28 17.90160 -63.25314 28008 ft 455 kts 291°
2026-05-04 11:28 17.91277 -63.28438 28156 ft 459 kts 291°
2026-05-04 11:29 17.92393 -63.31563 28493 ft 457 kts 291°
2026-05-04 11:29 17.93513 -63.34698 28728 ft 459 kts 291°
2026-05-04 11:29 17.94633 -63.37835 29005 ft 459 kts 291°
2026-05-04 11:29 17.95751 -63.40969 29241 ft 460 kts 291°
2026-05-04 11:31 18.03674 -63.63226 30717 ft 468 kts 291°
2026-05-04 11:33 18.11541 -63.85416 32596 ft 461 kts 291°
2026-05-04 11:33 18.12657 -63.88573 32890 ft 460 kts 291°
2026-05-04 11:33 18.13770 -63.91724 33105 ft 461 kts 291°
2026-05-04 11:34 18.14882 -63.94871 33370 ft 460 kts 291°
2026-05-04 11:34 18.15979 -63.97978 33648 ft 458 kts 291°
2026-05-04 11:34 18.17269 -64.01023 33861 ft 457 kts 303°
2026-05-04 11:34 18.19258 -64.03602 34083 ft 455 kts 317°
2026-05-04 11:35 18.21762 -64.05633 34068 ft 456 kts 330°
2026-05-04 11:35 18.24578 -64.07147 34096 ft 454 kts 330°
2026-05-04 11:35 18.30116 -64.10413 34085 ft 458 kts 329°
2026-05-04 11:36 18.35654 -64.13746 34072 ft 458 kts 329°
2026-05-04 11:36 18.41150 -64.17066 34076 ft 458 kts 329°
2026-05-04 11:37 18.46678 -64.20406 34079 ft 458 kts 329°
2026-05-04 11:37 18.52200 -64.23746 34076 ft 458 kts 329°
2026-05-04 11:38 18.57724 -64.27089 34080 ft 458 kts 329°
2026-05-04 11:38 18.63215 -64.30415 34080 ft 458 kts 329°
2026-05-04 11:39 18.68749 -64.33771 34082 ft 458 kts 329°
2026-05-04 11:41 18.88063 -64.45498 34078 ft 458 kts 329°
2026-05-04 11:41 18.93585 -64.48856 34084 ft 459 kts 329°
2026-05-04 11:42 18.99076 -64.52198 34078 ft 459 kts 329°
2026-05-04 11:42 19.04609 -64.55570 34081 ft 459 kts 329°
2026-05-04 11:43 19.10143 -64.58942 34077 ft 460 kts 329°
2026-05-04 11:43 19.15674 -64.62317 34077 ft 459 kts 329°
2026-05-04 11:44 19.21211 -64.65699 34087 ft 460 kts 329°
2026-05-04 11:44 19.26710 -64.69057 34081 ft 459 kts 329°
2026-05-04 11:45 19.32245 -64.72445 34088 ft 460 kts 328°
2026-05-04 11:45 19.37787 -64.75836 34084 ft 461 kts 328°
2026-05-04 11:46 19.43297 -64.79212 34082 ft 460 kts 328°
2026-05-04 11:46 19.48835 -64.82607 34084 ft 461 kts 328°
2026-05-04 11:47 19.54375 -64.86004 34085 ft 460 kts 328°
2026-05-04 11:47 19.59913 -64.89406 34086 ft 459 kts 329°
2026-05-04 11:48 19.65443 -64.92804 34087 ft 461 kts 329°
2026-05-04 11:48 19.70947 -64.96189 34085 ft 460 kts 328°
2026-05-04 11:49 19.76490 -64.99601 34087 ft 460 kts 328°
2026-05-04 11:49 19.82015 -65.03003 34089 ft 460 kts 329°
2026-05-04 11:50 19.87552 -65.06417 34088 ft 460 kts 328°
2026-05-04 11:50 19.93051 -65.09810 34090 ft 460 kts 328°
2026-05-04 11:51 19.98593 -65.13232 34084 ft 461 kts 328°
2026-05-04 11:51 20.04127 -65.16653 34086 ft 461 kts 328°
2026-05-04 11:52 20.09669 -65.20080 34093 ft 461 kts 328°
2026-05-04 11:52 20.15174 -65.23488 34084 ft 460 kts 328°
2026-05-04 11:53 20.20716 -65.26923 34084 ft 461 kts 328°
2026-05-04 11:53 20.26250 -65.30352 34080 ft 461 kts 328°
2026-05-04 11:55 20.48401 -65.44116 34087 ft 462 kts 328°
2026-05-04 11:56 20.53951 -65.47572 34088 ft 462 kts 328°
2026-05-04 11:56 20.59462 -65.51007 34085 ft 462 kts 328°
2026-05-04 11:57 20.65011 -65.54467 34091 ft 462 kts 328°
2026-05-04 11:57 20.70554 -65.57928 34088 ft 462 kts 328°
2026-05-04 11:58 20.76105 -65.61396 34090 ft 462 kts 328°
2026-05-04 11:58 20.81654 -65.64866 34089 ft 463 kts 328°
2026-05-04 11:59 20.87175 -65.68321 34089 ft 463 kts 328°
2026-05-04 11:59 20.92723 -65.71796 34089 ft 463 kts 328°
2026-05-04 12:00 20.98278 -65.75279 34088 ft 463 kts 327°
2026-05-04 12:00 21.03792 -65.78739 34089 ft 462 kts 327°
2026-05-04 12:01 21.09342 -65.82225 34090 ft 462 kts 327°
2026-05-04 12:02 21.28720 -65.94419 34098 ft 463 kts 327°
2026-05-04 12:03 21.34268 -65.97916 34085 ft 463 kts 327°
2026-05-04 12:03 21.39827 -66.01425 34085 ft 463 kts 327°
2026-05-04 12:04 21.45443 -66.04827 34073 ft 466 kts 336°
2026-05-04 12:04 21.51760 -66.06457 34081 ft 471 kts 346°
2026-05-04 12:05 21.58142 -66.07788 34084 ft 471 kts 346°
2026-05-04 12:05 21.64572 -66.09101 34090 ft 471 kts 346°
2026-05-04 12:06 21.71018 -66.10411 34085 ft 471 kts 346°
2026-05-04 12:06 21.77465 -66.11722 34084 ft 471 kts 346°
2026-05-04 12:07 21.83910 -66.13032 34086 ft 471 kts 346°
2026-05-04 12:07 21.90305 -66.14334 34084 ft 471 kts 346°
2026-05-04 12:08 21.96755 -66.15648 34087 ft 472 kts 346°
2026-05-04 12:08 22.03212 -66.16965 34080 ft 472 kts 346°
2026-05-04 12:09 22.09659 -66.18281 34087 ft 472 kts 346°
2026-05-04 12:09 22.16075 -66.19592 34091 ft 472 kts 346°
2026-05-04 12:10 22.22534 -66.20912 34089 ft 472 kts 346°
2026-05-04 12:10 22.28985 -66.22233 34080 ft 472 kts 346°
2026-05-04 12:11 22.35445 -66.23556 34079 ft 473 kts 346°
2026-05-04 12:11 22.41865 -66.24873 34078 ft 473 kts 346°
2026-05-04 12:12 22.48327 -66.26199 34091 ft 473 kts 345°
2026-05-04 12:12 22.54780 -66.27525 34092 ft 473 kts 345°
2026-05-04 12:14 22.80530 -66.32828 34081 ft 472 kts 345°
2026-05-04 12:15 22.86972 -66.34158 34084 ft 472 kts 345°
2026-05-04 12:15 22.93423 -66.35491 34089 ft 472 kts 345°
2026-05-04 12:16 22.99831 -66.36817 34087 ft 472 kts 345°
2026-05-04 12:16 23.06269 -66.38150 34082 ft 472 kts 345°
2026-05-04 12:17 23.12718 -66.39486 34081 ft 472 kts 345°
2026-05-04 12:17 23.19123 -66.40815 34085 ft 472 kts 345°
2026-05-04 12:18 23.25573 -66.42155 34086 ft 472 kts 345°
2026-05-04 12:18 23.32013 -66.43493 34086 ft 472 kts 345°
2026-05-04 12:19 23.38462 -66.44835 34084 ft 472 kts 345°
2026-05-04 12:19 23.44909 -66.46178 34084 ft 472 kts 345°
2026-05-04 12:20 23.51310 -66.47513 34087 ft 473 kts 345°
2026-05-04 12:20 23.57765 -66.48860 34086 ft 473 kts 345°
2026-05-04 12:21 23.64227 -66.50210 34083 ft 473 kts 345°
2026-05-04 12:21 23.70689 -66.51561 34080 ft 473 kts 345°
2026-05-04 12:22 23.77098 -66.52903 34092 ft 473 kts 344°
2026-05-04 12:22 23.83565 -66.54258 34081 ft 473 kts 344°
2026-05-04 12:23 23.90034 -66.55615 34078 ft 473 kts 344°
2026-05-04 12:23 23.96461 -66.56965 34078 ft 473 kts 344°
2026-05-04 12:24 24.02924 -66.58323 34082 ft 474 kts 344°
2026-05-04 12:24 24.09401 -66.59686 34090 ft 474 kts 343°
2026-05-04 12:25 24.14779 -66.60818 34082 ft 474 kts 343°
2026-05-04 12:25 24.21255 -66.62183 34083 ft 474 kts 343°
2026-05-04 12:26 24.28773 -66.63770 34076 ft 474 kts 343°
2026-05-04 12:26 24.35250 -66.65139 34076 ft 474 kts 343°
2026-05-04 12:27 24.40628 -66.66276 34086 ft 474 kts 343°
2026-05-04 12:27 24.47111 -66.67648 34081 ft 474 kts 343°
2026-05-04 12:28 24.53587 -66.69020 34081 ft 475 kts 343°
2026-05-04 12:28 24.60074 -66.70396 34080 ft 475 kts 343°
2026-05-04 12:29 24.66561 -66.71774 34079 ft 475 kts 343°
2026-05-04 12:29 24.73008 -66.73144 34082 ft 475 kts 343°
2026-05-04 12:30 24.79490 -66.74523 34082 ft 475 kts 343°
2026-05-04 12:30 24.85984 -66.75907 34083 ft 475 kts 343°
2026-05-04 12:31 24.92472 -66.77290 34083 ft 475 kts 343°
2026-05-04 12:31 24.98920 -66.78666 34095 ft 475 kts 342°
2026-05-04 12:32 25.08658 -66.80748 34077 ft 476 kts 342°
2026-05-04 12:33 25.15156 -66.82139 34074 ft 476 kts 342°
2026-05-04 12:33 25.21658 -66.83532 34080 ft 476 kts 342°
2026-05-04 12:34 25.28103 -66.84915 34110 ft 475 kts 342°
2026-05-04 12:34 25.34588 -66.86308 34084 ft 474 kts 342°
2026-05-04 12:35 25.41070 -66.87701 34081 ft 475 kts 342°
2026-05-04 12:35 25.47542 -66.89094 34079 ft 474 kts 342°
2026-05-04 12:36 25.54011 -66.90488 34083 ft 473 kts 342°
2026-05-04 12:36 25.60437 -66.91874 34088 ft 474 kts 342°
2026-05-04 12:37 25.66908 -66.93271 34068 ft 474 kts 342°
2026-05-04 12:37 25.73372 -66.94668 34084 ft 474 kts 342°
2026-05-04 12:38 25.79846 -66.96070 34084 ft 474 kts 342°
2026-05-04 12:38 25.86274 -66.97462 34083 ft 474 kts 342°
2026-05-04 12:39 25.92745 -66.98866 34085 ft 474 kts 342°
2026-05-04 12:39 25.99206 -67.00268 34087 ft 474 kts 342°
2026-05-04 12:40 26.05677 -67.01675 34082 ft 474 kts 342°
2026-05-04 12:40 26.12105 -67.03074 34068 ft 474 kts 342°
2026-05-04 12:41 26.18568 -67.04482 34089 ft 474 kts 341°
2026-05-04 12:41 26.25032 -67.05892 34085 ft 474 kts 341°
2026-05-04 12:42 26.31501 -67.07305 34086 ft 474 kts 341°
2026-05-04 12:42 26.37927 -67.08709 34081 ft 474 kts 341°
2026-05-04 12:43 26.44388 -67.10123 34077 ft 474 kts 341°
2026-05-04 12:43 26.50858 -67.11541 34088 ft 474 kts 341°
2026-05-04 12:44 26.57327 -67.12960 34084 ft 474 kts 341°
2026-05-04 12:44 26.63805 -67.14383 34083 ft 474 kts 341°
2026-05-04 12:45 26.70229 -67.15795 34084 ft 474 kts 341°
2026-05-04 12:45 26.76706 -67.17220 34093 ft 475 kts 341°
2026-05-04 12:46 26.83189 -67.18648 34083 ft 475 kts 341°
2026-05-04 12:46 26.89673 -67.20078 34081 ft 475 kts 341°
2026-05-04 12:47 26.96105 -67.21498 34080 ft 475 kts 341°
2026-05-04 12:47 27.02598 -67.22934 34089 ft 476 kts 341°
2026-05-04 12:48 27.09103 -67.24375 34087 ft 477 kts 341°
2026-05-04 12:48 27.15606 -67.25818 34089 ft 477 kts 341°
2026-05-04 12:49 27.22064 -67.27252 34091 ft 477 kts 341°
2026-05-04 12:49 27.28575 -67.28699 34086 ft 477 kts 341°
2026-05-04 12:50 27.35090 -67.30148 34094 ft 478 kts 341°
2026-05-04 12:50 27.41617 -67.31602 34085 ft 479 kts 341°
2026-05-04 12:51 27.48109 -67.33050 34086 ft 479 kts 341°
2026-05-04 12:51 27.54644 -67.34510 34078 ft 478 kts 341°
2026-05-04 12:52 27.61171 -67.35969 34102 ft 479 kts 341°
2026-05-04 12:52 27.67734 -67.37438 34076 ft 482 kts 341°
2026-05-04 12:53 27.74270 -67.38903 34080 ft 482 kts 341°
2026-05-04 12:53 27.80845 -67.40378 34087 ft 482 kts 341°
2026-05-04 12:54 27.87428 -67.41857 34082 ft 482 kts 341°
2026-05-04 12:54 27.94010 -67.43338 34088 ft 485 kts 340°
2026-05-04 12:55 28.00638 -67.44830 34085 ft 486 kts 340°
2026-05-04 12:55 28.07223 -67.46315 34083 ft 486 kts 340°
2026-05-04 12:56 28.13854 -67.47813 34131 ft 487 kts 341°
2026-05-04 12:56 28.20479 -67.49310 34095 ft 485 kts 340°
2026-05-04 12:57 28.27061 -67.50800 34093 ft 486 kts 340°
2026-05-04 12:57 28.33696 -67.52303 34091 ft 486 kts 340°
2026-05-04 12:58 28.40329 -67.53809 34059 ft 485 kts 340°
2026-05-04 12:58 28.46951 -67.55314 34120 ft 488 kts 340°
2026-05-04 12:59 28.53567 -67.56820 34106 ft 488 kts 340°
2026-05-04 12:59 28.60220 -67.58335 34106 ft 488 kts 340°
2026-05-04 13:00 28.66877 -67.59854 34101 ft 488 kts 340°
2026-05-04 13:00 28.73538 -67.61376 34115 ft 488 kts 340°
2026-05-04 13:01 28.80201 -67.62899 34123 ft 488 kts 340°
2026-05-04 13:01 28.86807 -67.64412 34122 ft 488 kts 340°
2026-05-04 13:02 28.93458 -67.65937 34105 ft 488 kts 340°
2026-05-04 13:02 29.00119 -67.67467 34124 ft 488 kts 340°
2026-05-04 13:03 29.06793 -67.69002 34127 ft 491 kts 340°
2026-05-04 13:03 29.13450 -67.70534 34126 ft 492 kts 340°
2026-05-04 13:04 29.20154 -67.72079 34119 ft 492 kts 340°
2026-05-04 13:04 29.26869 -67.73630 34126 ft 492 kts 340°
2026-05-04 13:05 29.33588 -67.75182 34151 ft 494 kts 340°
2026-05-04 13:05 29.40317 -67.76740 34130 ft 499 kts 340°
2026-05-04 13:06 29.47121 -67.78317 34131 ft 499 kts 340°
2026-05-04 13:06 29.53928 -67.79897 34162 ft 499 kts 340°
2026-05-04 13:07 29.60681 -67.81465 34157 ft 499 kts 339°
2026-05-04 13:07 29.67504 -67.83054 34095 ft 501 kts 339°
2026-05-04 13:08 29.74354 -67.84651 34161 ft 503 kts 339°
2026-05-04 13:08 29.81197 -67.86248 34129 ft 502 kts 339°
2026-05-04 13:09 29.88003 -67.87838 34166 ft 502 kts 339°
2026-05-04 13:09 29.94833 -67.89436 34144 ft 501 kts 339°
2026-05-04 13:10 30.01651 -67.91034 34148 ft 501 kts 339°
2026-05-04 13:10 30.08489 -67.92639 34150 ft 501 kts 339°
2026-05-04 13:11 30.15313 -67.94243 34178 ft 501 kts 339°
2026-05-04 13:11 30.22099 -67.95840 34149 ft 500 kts 339°
2026-05-04 13:12 30.28920 -67.97447 34154 ft 501 kts 339°
2026-05-04 13:12 30.35752 -67.99060 34154 ft 501 kts 339°
2026-05-04 13:13 30.42581 -68.00674 34191 ft 501 kts 339°
2026-05-04 13:13 30.49350 -68.02276 34157 ft 500 kts 339°
2026-05-04 13:14 30.56173 -68.03893 34164 ft 501 kts 339°
2026-05-04 13:14 30.62984 -68.05510 34161 ft 501 kts 339°
2026-05-04 13:15 30.69812 -68.07133 34199 ft 501 kts 339°
2026-05-04 13:15 30.76607 -68.08750 34172 ft 502 kts 339°
2026-05-04 13:16 30.83460 -68.10384 34164 ft 503 kts 339°
2026-05-04 13:16 30.90303 -68.12018 34171 ft 503 kts 339°
2026-05-04 13:17 30.97158 -68.13657 34204 ft 503 kts 339°
2026-05-04 13:17 31.03953 -68.15284 34166 ft 502 kts 339°
2026-05-04 13:18 31.10795 -68.16925 34170 ft 502 kts 339°
2026-05-04 13:18 31.17625 -68.18564 34176 ft 502 kts 339°
2026-05-04 13:19 31.24451 -68.20204 34228 ft 498 kts 339°
2026-05-04 13:19 31.31141 -68.21815 34187 ft 492 kts 339°
2026-05-04 13:20 31.37839 -68.23430 34188 ft 492 kts 339°
2026-05-04 13:20 31.44557 -68.25055 34185 ft 493 kts 339°
2026-05-04 13:21 31.51228 -68.26670 34186 ft 493 kts 339°
2026-05-04 13:21 31.57937 -68.28296 34190 ft 493 kts 339°
2026-05-04 13:22 31.64651 -68.29925 34189 ft 493 kts 339°
2026-05-04 13:22 31.71361 -68.31556 34190 ft 493 kts 339°
2026-05-04 13:23 31.78079 -68.33190 34220 ft 493 kts 339°
2026-05-04 13:23 31.84743 -68.34815 34192 ft 492 kts 339°
2026-05-04 13:24 31.91447 -68.36451 34186 ft 493 kts 339°
2026-05-04 13:24 31.98154 -68.38091 34193 ft 493 kts 339°
2026-05-04 13:25 32.08184 -68.40547 34203 ft 493 kts 339°
2026-05-04 13:25 32.14894 -68.42194 34194 ft 493 kts 339°
2026-05-04 13:26 32.21606 -68.43843 34197 ft 493 kts 338°
2026-05-04 13:26 32.28324 -68.45496 34196 ft 493 kts 338°
2026-05-04 13:27 32.35033 -68.47150 34217 ft 494 kts 339°
2026-05-04 13:27 32.41725 -68.48802 34201 ft 494 kts 339°
2026-05-04 13:28 32.48456 -68.50466 34200 ft 495 kts 339°
2026-05-04 13:28 32.55194 -68.52134 34203 ft 495 kts 339°
2026-05-04 13:29 32.61927 -68.53804 34215 ft 497 kts 339°
2026-05-04 13:29 32.68665 -68.55478 34201 ft 498 kts 339°
2026-05-04 13:30 32.75444 -68.57164 34204 ft 498 kts 339°
2026-05-04 13:30 32.82233 -68.58856 34206 ft 498 kts 339°
2026-05-04 13:31 32.89018 -68.60549 34206 ft 502 kts 339°
2026-05-04 13:31 32.95815 -68.62247 34212 ft 503 kts 339°
2026-05-04 13:32 33.02654 -68.63959 34215 ft 502 kts 339°
2026-05-04 13:32 33.09489 -68.65673 34215 ft 502 kts 339°
2026-05-04 13:33 33.16352 -68.67396 34208 ft 507 kts 339°
2026-05-04 13:33 33.23214 -68.69122 34208 ft 507 kts 339°
2026-05-04 13:34 33.30115 -68.70861 34208 ft 507 kts 339°
2026-05-04 13:34 33.37010 -68.72600 34245 ft 507 kts 338°
2026-05-04 13:35 33.47369 -68.75220 34209 ft 511 kts 338°
2026-05-04 13:36 33.54320 -68.76981 34206 ft 510 kts 338°
2026-05-04 13:36 33.61263 -68.78743 34213 ft 511 kts 338°
2026-05-04 13:37 33.68226 -68.80513 34208 ft 512 kts 336°
2026-05-04 13:37 33.75207 -68.82290 34211 ft 513 kts 336°
2026-05-04 13:38 33.82136 -68.84057 34209 ft 513 kts 336°
2026-05-04 13:38 33.89114 -68.85839 34246 ft 513 kts 335°
2026-05-04 13:39 33.96090 -68.87623 34210 ft 511 kts 334°
2026-05-04 13:39 34.02999 -68.89393 34213 ft 512 kts 334°
2026-05-04 13:40 34.09959 -68.91180 34211 ft 512 kts 334°
2026-05-04 13:40 34.16920 -68.92973 34208 ft 512 kts 334°
2026-05-04 13:41 34.23885 -68.94768 34208 ft 512 kts 334°
2026-05-04 13:41 34.30799 -68.96552 34208 ft 512 kts 334°
2026-05-04 13:42 34.41240 -68.99253 34253 ft 511 kts 334°
2026-05-04 13:42 34.48166 -69.01048 34206 ft 508 kts 334°
2026-05-04 13:43 34.55085 -69.02844 34209 ft 509 kts 334°
2026-05-04 13:43 34.61967 -69.04634 34208 ft 509 kts 334°
2026-05-04 13:44 34.68891 -69.06437 34218 ft 508 kts 333°
2026-05-04 13:44 34.75789 -69.08237 34206 ft 507 kts 333°
2026-05-04 13:45 34.82633 -69.10027 34206 ft 507 kts 333°
2026-05-04 13:45 34.89528 -69.11832 34204 ft 507 kts 333°
2026-05-04 13:46 34.96396 -69.13633 34213 ft 503 kts 333°
2026-05-04 13:46 35.03227 -69.15428 34206 ft 503 kts 333°
2026-05-04 13:47 35.10015 -69.17215 34203 ft 503 kts 333°
2026-05-04 13:47 35.16861 -69.19019 34256 ft 502 kts 333°
2026-05-04 13:48 35.23637 -69.20809 34213 ft 496 kts 334°
2026-05-04 13:48 35.30388 -69.22595 34208 ft 497 kts 334°
2026-05-04 13:49 35.37099 -69.24373 34205 ft 497 kts 334°
2026-05-04 13:49 35.43849 -69.26165 34222 ft 496 kts 334°
2026-05-04 13:50 35.50573 -69.27953 34205 ft 495 kts 334°
2026-05-04 13:50 35.57296 -69.29743 34205 ft 495 kts 334°
2026-05-04 13:51 35.63983 -69.31528 34202 ft 495 kts 334°
2026-05-04 13:51 35.70690 -69.33320 34203 ft 492 kts 334°
2026-05-04 13:52 35.80718 -69.36006 34200 ft 492 kts 334°
2026-05-04 13:53 35.87400 -69.37800 34207 ft 492 kts 334°
2026-05-04 13:53 35.94046 -69.39587 34206 ft 491 kts 334°
2026-05-04 13:54 36.04045 -69.42280 34197 ft 491 kts 334°
2026-05-04 13:55 36.14016 -69.45080 34186 ft 478 kts 326°
2026-05-04 13:55 36.19357 -69.48995 34205 ft 442 kts 310°
2026-05-04 13:55 36.21839 -69.51246 34201 ft 441 kts 309°
2026-05-04 13:56 36.26712 -69.55834 34199 ft 440 kts 308°
2026-05-04 13:57 36.33965 -69.62810 34192 ft 440 kts 308°
2026-05-04 13:58 36.43580 -69.72104 34214 ft 440 kts 308°
2026-05-04 13:58 36.50806 -69.79111 34189 ft 439 kts 308°
2026-05-04 13:59 36.55621 -69.83789 34183 ft 439 kts 308°
2026-05-04 14:00 36.62807 -69.90784 34189 ft 441 kts 309°
2026-05-04 14:00 36.70039 -69.97842 34183 ft 440 kts 309°
2026-05-04 14:01 36.74834 -70.02530 34185 ft 441 kts 309°
2026-05-04 14:02 36.82066 -70.09617 34181 ft 441 kts 309°
2026-05-04 14:02 36.86876 -70.14339 34181 ft 441 kts 309°
2026-05-04 14:03 36.91689 -70.19073 34181 ft 441 kts 309°
2026-05-04 14:03 36.96474 -70.23787 34184 ft 441 kts 310°
2026-05-04 14:04 37.03703 -70.30924 34177 ft 442 kts 310°
2026-05-04 14:04 37.08527 -70.35695 34173 ft 441 kts 310°
2026-05-04 14:05 37.15715 -70.42821 34181 ft 442 kts 310°
2026-05-04 14:06 37.20533 -70.47606 34170 ft 442 kts 310°
2026-05-04 14:06 37.25341 -70.52390 34203 ft 442 kts 310°
2026-05-04 14:07 37.30154 -70.57188 34175 ft 441 kts 310°
2026-05-04 14:07 37.34956 -70.61982 34167 ft 441 kts 310°
2026-05-04 14:08 37.39734 -70.66760 34164 ft 442 kts 310°
2026-05-04 14:08 37.44532 -70.71566 34163 ft 442 kts 310°
2026-05-04 14:09 37.51739 -70.78801 34164 ft 442 kts 310°
2026-05-04 14:10 37.58902 -70.86008 34166 ft 441 kts 310°
2026-05-04 14:10 37.63685 -70.90831 34169 ft 441 kts 310°
2026-05-04 14:11 37.68472 -70.95664 34157 ft 441 kts 310°
2026-05-04 14:11 37.73550 -71.00121 34162 ft 453 kts 319°
2026-05-04 14:11 37.76266 -71.02147 34164 ft 453 kts 319°
2026-05-04 14:12 37.81674 -71.06156 34189 ft 453 kts 319°
2026-05-04 14:13 37.89802 -71.12181 34158 ft 452 kts 319°
2026-05-04 14:13 37.95227 -71.16211 34152 ft 452 kts 319°
2026-05-04 14:14 38.00643 -71.20242 34151 ft 452 kts 319°
2026-05-04 14:14 38.08722 -71.26266 34160 ft 450 kts 318°
2026-05-04 14:15 38.19489 -71.34320 34148 ft 449 kts 318°
2026-05-04 14:16 38.27521 -71.40346 34143 ft 449 kts 318°
2026-05-04 14:17 38.35562 -71.46394 34149 ft 445 kts 318°
2026-05-04 14:18 38.43523 -71.52398 34143 ft 445 kts 318°
2026-05-04 14:19 38.54169 -71.60450 34136 ft 444 kts 319°
2026-05-04 14:19 38.59482 -71.64480 34144 ft 445 kts 319°
2026-05-04 14:20 38.64799 -71.68520 34134 ft 444 kts 319°
2026-05-04 14:20 38.70075 -71.72535 34127 ft 445 kts 319°
2026-05-04 14:21 38.78047 -71.78616 34128 ft 445 kts 319°
2026-05-04 14:21 38.83364 -71.82679 34146 ft 445 kts 320°
2026-05-04 14:22 38.88649 -71.86726 34115 ft 445 kts 320°
2026-05-04 14:22 38.93962 -71.90800 34115 ft 445 kts 320°
2026-05-04 14:23 39.01568 -71.97425 34133 ft 436 kts 313°
2026-05-04 14:24 39.06255 -72.02308 34111 ft 436 kts 313°
2026-05-04 14:24 39.10952 -72.07224 34106 ft 434 kts 314°
2026-05-04 14:25 39.15633 -72.12133 34106 ft 435 kts 314°
2026-05-04 14:25 39.22659 -72.19518 34102 ft 434 kts 314°
2026-05-04 14:26 39.27309 -72.24417 34102 ft 434 kts 314°
2026-05-04 14:26 39.31970 -72.29335 34098 ft 431 kts 314°
2026-05-04 14:27 39.36604 -72.34234 34096 ft 431 kts 314°
2026-05-04 14:27 39.41242 -72.39147 34092 ft 431 kts 314°
2026-05-04 14:28 39.45845 -72.44030 34086 ft 431 kts 314°
2026-05-04 14:28 39.50474 -72.48950 34086 ft 431 kts 314°
2026-05-04 14:29 39.59730 -72.58813 34092 ft 431 kts 314°
2026-05-04 14:30 39.64314 -72.63712 34085 ft 429 kts 315°
2026-05-04 14:31 39.71221 -72.71108 34072 ft 429 kts 315°
2026-05-04 14:32 39.80427 -72.80996 34069 ft 429 kts 314°
2026-05-04 14:32 39.84896 -72.86039 34105 ft 428 kts 313°
2026-05-04 14:33 39.89373 -72.91166 34065 ft 429 kts 313°
2026-05-04 14:33 39.93855 -72.96305 34071 ft 429 kts 314°
2026-05-04 14:34 39.98325 -73.01440 34057 ft 428 kts 314°
2026-05-04 14:34 40.02770 -73.06554 34056 ft 429 kts 314°
2026-05-04 14:35 40.07230 -73.11697 34054 ft 429 kts 313°
2026-05-04 14:35 40.11698 -73.16857 34066 ft 428 kts 314°
2026-05-04 14:36 40.16160 -73.22020 34053 ft 429 kts 314°
2026-05-04 14:36 40.20593 -73.27159 34042 ft 429 kts 314°
2026-05-04 14:37 40.25045 -73.32329 34043 ft 428 kts 314°
2026-05-04 14:37 40.29497 -73.37510 34038 ft 428 kts 314°
2026-05-04 14:38 40.33947 -73.42697 34033 ft 428 kts 314°
2026-05-04 14:38 40.38361 -73.47851 34042 ft 428 kts 314°
2026-05-04 14:39 40.42796 -73.53040 34027 ft 427 kts 314°
2026-05-04 14:39 40.47230 -73.58237 34023 ft 428 kts 314°
2026-05-04 14:40 40.53875 -73.66044 34022 ft 427 kts 314°
2026-05-04 14:40 40.58266 -73.71213 34017 ft 426 kts 314°
2026-05-04 14:41 40.62685 -73.76407 34028 ft 427 kts 317°
2026-05-04 14:42 40.73022 -73.84416 34002 ft 432 kts 326°
2026-05-04 14:42 40.78210 -73.88310 33992 ft 432 kts 326°
2026-05-04 14:43 40.83433 -73.92234 33989 ft 432 kts 326°
2026-05-04 14:43 40.88651 -73.96162 33994 ft 432 kts 326°
2026-05-04 14:44 40.93861 -74.00091 33991 ft 431 kts 326°
2026-05-04 14:44 40.99011 -74.03982 33994 ft 428 kts 326°
2026-05-04 14:45 41.04181 -74.07895 33992 ft 428 kts 326°
2026-05-04 14:45 41.09347 -74.11812 34008 ft 428 kts 326°
2026-05-04 14:46 41.14502 -74.15727 33988 ft 425 kts 326°
2026-05-04 14:46 41.19601 -74.19606 33952 ft 426 kts 326°
2026-05-04 14:47 41.24741 -74.23525 33970 ft 426 kts 326°
2026-05-04 14:47 41.29870 -74.27443 33977 ft 426 kts 326°
2026-05-04 14:48 41.35002 -74.31369 33973 ft 425 kts 326°
2026-05-04 14:48 41.39910 -74.35548 33948 ft 417 kts 312°
2026-05-04 14:49 41.41679 -74.38559 33975 ft 413 kts 300°
2026-05-04 14:49 41.43194 -74.41826 33945 ft 415 kts 301°
2026-05-04 14:49 41.46148 -74.48415 33961 ft 415 kts 300°
2026-05-04 14:50 41.49029 -74.55029 33949 ft 415 kts 299°
2026-05-04 14:50 41.51909 -74.61695 33958 ft 414 kts 299°
2026-05-04 14:51 41.54782 -74.68365 33946 ft 414 kts 299°
2026-05-04 14:51 41.57652 -74.75044 33957 ft 415 kts 299°
2026-05-04 14:52 41.60515 -74.81720 33960 ft 415 kts 299°
2026-05-04 14:52 41.63355 -74.88365 33955 ft 414 kts 299°
2026-05-04 14:53 41.66209 -74.95054 33953 ft 414 kts 299°
2026-05-04 14:53 41.69062 -75.01757 33953 ft 414 kts 299°
2026-05-04 14:54 41.71889 -75.08412 33934 ft 415 kts 300°
2026-05-04 14:54 41.74736 -75.15131 33954 ft 415 kts 300°
2026-05-04 14:55 41.77583 -75.21864 33951 ft 415 kts 300°
2026-05-04 14:55 41.80425 -75.28602 33934 ft 415 kts 300°
2026-05-04 14:56 41.83261 -75.35339 33949 ft 415 kts 300°
2026-05-04 14:56 41.86004 -75.41870 33938 ft 415 kts 300°
2026-05-04 14:57 41.88822 -75.48596 33932 ft 412 kts 300°
2026-05-04 14:57 41.91615 -75.55275 33930 ft 412 kts 300°
2026-05-04 14:58 41.94415 -75.61989 33928 ft 412 kts 300°
2026-05-04 14:58 41.96713 -75.67510 33917 ft 411 kts 300°
2026-05-04 14:59 41.99953 -75.75313 33918 ft 412 kts 300°
2026-05-04 15:00 42.04117 -75.85370 33899 ft 408 kts 300°
2026-05-04 15:00 42.06875 -75.92049 33905 ft 409 kts 300°
2026-05-04 15:01 42.10985 -76.02034 33903 ft 409 kts 300°
2026-05-04 15:01 42.13734 -76.08729 33897 ft 409 kts 300°
2026-05-04 15:02 42.16301 -76.15558 33891 ft 409 kts 294°
2026-05-04 15:02 42.18511 -76.22602 33899 ft 408 kts 295°
2026-05-04 15:03 42.20741 -76.29550 33896 ft 405 kts 295°
2026-05-04 15:03 42.22980 -76.36515 33885 ft 405 kts 295°
2026-05-04 15:04 42.25215 -76.43481 33885 ft 404 kts 295°
2026-05-04 15:04 42.27446 -76.50455 33876 ft 404 kts 295°
2026-05-04 15:05 42.29647 -76.57347 33878 ft 402 kts 295°
2026-05-04 15:05 42.31859 -76.64295 33867 ft 402 kts 295°
2026-05-04 15:06 42.34064 -76.71240 33871 ft 402 kts 295°
2026-05-04 15:07 42.37356 -76.81638 33866 ft 403 kts 295°
2026-05-04 15:07 42.39550 -76.88592 33850 ft 402 kts 295°
2026-05-04 15:08 42.41739 -76.95549 33851 ft 402 kts 295°
2026-05-04 15:08 42.43923 -77.02508 33852 ft 402 kts 295°
2026-05-04 15:09 42.46085 -77.09467 33842 ft 401 kts 295°
2026-05-04 15:09 42.48233 -77.16389 33846 ft 402 kts 295°
2026-05-04 15:10 42.51469 -77.26852 33845 ft 403 kts 295°
2026-05-04 15:11 42.54705 -77.37354 33857 ft 402 kts 295°
2026-05-04 15:11 42.56833 -77.44287 33854 ft 402 kts 295°
2026-05-04 15:12 42.58975 -77.51281 33841 ft 402 kts 295°
2026-05-04 15:12 42.61116 -77.58289 33849 ft 402 kts 294°
2026-05-04 15:13 42.63248 -77.65290 33840 ft 401 kts 295°
2026-05-04 15:13 42.65327 -77.72130 33838 ft 401 kts 294°
2026-05-04 15:14 42.67333 -77.79215 33844 ft 401 kts 293°
2026-05-04 15:14 42.69312 -77.86296 33847 ft 402 kts 293°
2026-05-04 15:15 42.71294 -77.93394 33843 ft 402 kts 293°
2026-05-04 15:15 42.73260 -78.00453 33829 ft 402 kts 293°
2026-05-04 15:16 42.76196 -78.11034 33828 ft 402 kts 293°
2026-05-04 15:17 42.79150 -78.21722 33828 ft 402 kts 293°
2026-05-04 15:17 42.81087 -78.28760 33141 ft 397 kts 292°
2026-05-04 15:17 42.82061 -78.32304 32137 ft 402 kts 292°
2026-05-04 15:18 42.83047 -78.35901 31229 ft 407 kts 292°
2026-05-04 15:18 42.84036 -78.39509 30467 ft 408 kts 292°
2026-05-04 15:18 42.85026 -78.43128 29673 ft 408 kts 291°
2026-05-04 15:19 42.87003 -78.50367 28212 ft 404 kts 291°
2026-05-04 15:19 42.87961 -78.53886 27609 ft 400 kts 291°
2026-05-04 15:19 42.89882 -78.60953 26372 ft 394 kts 291°
2026-05-04 15:20 42.90829 -78.64444 25760 ft 392 kts 291°
2026-05-04 15:20 42.91773 -78.67929 25157 ft 390 kts 291°
2026-05-04 15:20 42.92711 -78.71389 24537 ft 388 kts 292°
2026-05-04 15:20 42.93971 -78.74620 23870 ft 388 kts 307°
2026-05-04 15:21 42.95625 -78.77447 23312 ft 385 kts 308°
2026-05-04 15:21 42.97292 -78.80284 22669 ft 383 kts 308°
2026-05-04 15:21 43.00626 -78.85871 21524 ft 376 kts 308°
2026-05-04 15:22 43.02281 -78.88626 20968 ft 373 kts 308°
2026-05-04 15:22 43.03924 -78.91360 20423 ft 371 kts 308°
2026-05-04 15:22 43.07182 -78.96783 19332 ft 368 kts 308°
2026-05-04 15:23 43.08799 -78.99479 18799 ft 366 kts 308°
2026-05-04 15:23 43.10388 -79.02130 18292 ft 365 kts 307°
2026-05-04 15:23 43.11998 -79.04817 17718 ft 365 kts 307°
2026-05-04 15:23 43.13605 -79.07501 17031 ft 366 kts 307°
2026-05-04 15:24 43.16798 -79.12838 16143 ft 356 kts 307°
2026-05-04 15:24 43.19900 -79.18035 15286 ft 348 kts 307°
2026-05-04 15:25 43.21406 -79.20561 14814 ft 346 kts 307°
2026-05-04 15:25 43.22924 -79.23109 14401 ft 343 kts 307°
2026-05-04 15:25 43.24412 -79.25608 14204 ft 333 kts 307°
2026-05-04 15:26 43.27199 -79.30296 13874 ft 314 kts 307°
2026-05-04 15:26 43.28558 -79.32586 13717 ft 304 kts 307°
2026-05-04 15:26 43.31628 -79.36282 13365 ft 294 kts 331°
2026-05-04 15:27 43.33422 -79.37442 13237 ft 284 kts 329°
2026-05-04 15:27 43.36886 -79.39704 12809 ft 273 kts 329°
2026-05-04 15:28 43.40422 -79.41988 11781 ft 286 kts 329°
2026-05-04 15:28 43.42233 -79.43153 11302 ft 289 kts 330°
2026-05-04 15:28 43.45860 -79.45489 10507 ft 283 kts 329°
2026-05-04 15:29 43.47586 -79.46602 10299 ft 273 kts 329°
2026-05-04 15:30 43.53978 -79.50726 9575 ft 234 kts 328°
2026-05-04 15:30 43.58368 -79.53383 8545 ft 235 kts 345°
2026-05-04 15:31 43.61449 -79.51867 7859 ft 257 kts 43°
2026-05-04 15:31 43.62666 -79.50050 7509 ft 259 kts 44°
2026-05-04 15:32 43.66346 -79.44644 6656 ft 257 kts 44°
2026-05-04 15:32 43.68798 -79.41062 6086 ft 256 kts 44°
2026-05-04 15:33 43.71208 -79.37539 5495 ft 254 kts 44°
2026-05-04 15:34 43.74842 -79.32220 4584 ft 253 kts 45°
2026-05-04 15:34 43.76044 -79.30458 4300 ft 252 kts 45°
2026-05-04 15:34 43.78813 -79.27998 3929 ft 230 kts 351°
2026-05-04 15:35 43.81413 -79.29943 4023 ft 219 kts 315°
2026-05-04 15:35 43.82588 -79.31241 4037 ft 212 kts 314°
2026-05-04 15:35 43.83465 -79.32759 3983 ft 196 kts 285°
2026-05-04 15:36 43.83073 -79.35993 4020 ft 168 kts 238°
2026-05-04 15:36 43.82427 -79.37341 4046 ft 168 kts 235°
2026-05-04 15:36 43.81726 -79.38628 4015 ft 168 kts 233°
2026-05-04 15:37 43.80984 -79.39876 3995 ft 168 kts 231°
2026-05-04 15:37 43.80230 -79.41078 3978 ft 165 kts 230°
2026-05-04 15:37 43.79462 -79.42273 3614 ft 168 kts 229°
2026-05-04 15:37 43.78681 -79.43437 3293 ft 163 kts 229°
2026-05-04 15:38 43.77905 -79.44581 3029 ft 163 kts 229°
2026-05-04 15:38 43.77146 -79.45694 2959 ft 155 kts 228°
2026-05-04 15:38 43.76411 -79.46771 2925 ft 154 kts 228°
2026-05-04 15:38 43.75672 -79.47853 2850 ft 156 kts 228°
2026-05-04 15:39 43.74957 -79.48896 2708 ft 145 kts 227°
2026-05-04 15:39 43.74276 -79.49890 2530 ft 144 kts 227°
2026-05-04 15:39 43.72924 -79.51863 2148 ft 140 kts 228°
2026-05-04 15:40 43.72256 -79.52838 1952 ft 140 kts 226°
2026-05-04 15:40 43.71581 -79.53821 1763 ft 142 kts 226°
2026-05-04 15:40 43.70907 -79.54801 1580 ft 139 kts 224°
2026-05-04 15:40 43.70231 -79.55778 1394 ft 142 kts 224°
2026-05-04 15:41 43.69550 -79.56777 1159 ft 145 kts 227°
2026-05-04 15:41 43.69087 -79.57452 1085 ft 147 kts 225°
2026-05-04 15:41 43.68153 -79.58799 802 ft 148 kts 227°
2026-05-04 15:41 43.67450 -79.59836 624 ft 147 kts 226°
2026-05-04 15:42 43.66796 -79.60785 572 ft 123 kts 225°
2026-05-04 15:42 43.66316 -79.61480 564 ft 69 kts 226°
2026-05-04 15:42 43.66100 -79.61794 574 ft 25 kts 227°
2026-05-04 15:42 43.66031 -79.61926 563 ft 26 kts 244°
2026-05-04 15:43 43.65989 -79.62188 567 ft 17 kts 299°
2026-05-04 15:43 43.66047 -79.62274 567 ft 1 kts 317°
2026-05-04 15:43 43.66053 -79.62281 569 ft 4 kts 317°
2026-05-04 15:44 43.66107 -79.62348 564 ft 18 kts 318°
2026-05-04 15:44 43.66236 -79.62501 560 ft 26 kts 334°
2026-05-04 15:44 43.66323 -79.62442 563 ft 22 kts 42°
2026-05-04 15:44 43.66423 -79.62317 566 ft 19 kts 42°
2026-05-04 15:45 43.66524 -79.62190 565 ft 20 kts 42°
2026-05-04 15:45 43.66666 -79.62012 571 ft 21 kts 42°
2026-05-04 15:45 43.66780 -79.61871 572 ft 23 kts 42°
2026-05-04 15:45 43.66899 -79.61717 571 ft 24 kts 43°
2026-05-04 15:46 43.67022 -79.61563 573 ft 24 kts 42°
2026-05-04 15:46 43.67103 -79.61460 576 ft 25 kts 42°
2026-05-04 15:46 43.67202 -79.61325 571 ft 19 kts 51°
2026-05-04 15:46 43.67285 -79.61279 570 ft 14 kts 325°
2026-05-04 15:47 43.67365 -79.61375 564 ft 16 kts 315°
2026-05-04 15:47 43.67477 -79.61522 565 ft 18 kts 316°
2026-05-04 15:47 43.67539 -79.61606 565 ft 19 kts 315°
2026-05-04 15:47 43.67674 -79.61776 565 ft 21 kts 316°
2026-05-04 15:48 43.67784 -79.61923 572 ft 23 kts 316°
2026-05-04 15:48 43.67863 -79.62024 564 ft 24 kts 321°
2026-05-04 15:48 43.68102 -79.62271 564 ft 22 kts 316°
2026-05-04 15:49 43.68207 -79.62409 564 ft 17 kts 316°
2026-05-04 15:49 43.68285 -79.62388 568 ft 12 kts 68°
2026-05-04 15:49 43.68329 -79.62259 567 ft 11 kts 44°
2026-05-04 15:49 43.68371 -79.62209 571 ft 12 kts 29°
2026-05-04 15:50 43.68417 -79.62170 568 ft 2 kts 69°
2026-05-04 15:50 43.68417 -79.62152 569 ft 3 kts 96°
2026-05-04 15:50 43.68410 -79.62114 566 ft 5 kts 105°
2026-05-04 15:50 43.68403 -79.62078 571 ft 3 kts 107°
2026-05-04 15:51 43.68401 -79.62070 571 ft 0 kts 107°